This is the latest recevied weather packets stored in our database for station/object DK6GC-10. If no packets are shown the sender has not sent any weather packets the latest 10 day(s).
| Time | Temp. | Humidity | Pressure | Rain* | Wind** | Luminosity | Snow |
|---|---|---|---|---|---|---|---|
| 1787382019 | 15° C | 96% | 1020.1 hPa | - | - | - | - |
| 1787381119 | 15° C | 95% | 1019.7 hPa | - | - | - | - |
| 1787380219 | 14.44° C | 96% | 1019.6 hPa | - | - | - | - |
| 1787379318 | 15° C | 96% | 1019.3 hPa | - | - | - | - |
| 1787378421 | 14.44° C | 98% | 1019.2 hPa | - | - | - | - |
| 1787377521 | 14.44° C | 98% | 1019 hPa | - | - | - | - |
| 1787376621 | 14.44° C | 99% | 1018.8 hPa | - | - | - | - |
| 1787375721 | 14.44° C | 100% | 1018.4 hPa | - | - | - | - |
| 1787374820 | 13.89° C | 100% | 1018.4 hPa | - | - | - | - |
| 1787373920 | 13.89° C | 100% | 1018.3 hPa | - | - | - | - |
| 1787373020 | 13.89° C | 100% | 1018.1 hPa | - | - | - | - |
| 1787372120 | 13.89° C | 100% | 1018 hPa | - | - | - | - |
| 1787371220 | 13.89° C | 100% | 1017.9 hPa | - | - | - | - |
| 1787370320 | 13.89° C | 100% | 1017.9 hPa | - | - | - | - |
| 1787369419 | 13.33° C | 100% | 1017.9 hPa | - | - | - | - |
| 1787368519 | 13.33° C | 100% | 1017.7 hPa | - | - | - | - |
| 1787367619 | 13.33° C | 100% | 1017.4 hPa | - | - | - | - |
| 1787365819 | 12.78° C | 100% | 1017.2 hPa | - | - | - | - |
| 1787364919 | 13.33° C | 100% | 1016.9 hPa | - | - | - | - |
| 1787364018 | 13.89° C | 100% | 1016.7 hPa | - | - | - | - |
| 1787363118 | 13.89° C | 100% | 1016.4 hPa | - | - | - | - |
| 1787362218 | 13.89° C | 100% | 1016.3 hPa | - | - | - | - |
| 1787361318 | 13.89° C | 100% | 1016.4 hPa | - | - | - | - |
| 1787360418 | 14.44° C | 100% | 1016.5 hPa | - | - | - | - |
| 1787359517 | 14.44° C | 100% | 1016.4 hPa | - | - | - | - |
* Rain since midnight (hover to see other rain measurements)
** Current wind speed in m/s (hover to see current wind gust speed)